Weather History for Palm Springs, CA

Change the Weather History Date:

Sunday, November 11, 2012

  Actual Average Record
Temperature  
Mean Temperature 55 °F 66 °F  
Max Temperature 66 °F 79 °F 96 °F (1933)
Min Temperature 44 °F 54 °F 31 °F (1950)
Degree Days  
Heating Degree Days 10 2  
Month to date heating degree days 20 13  
Since 1 July heating degree days 20 17  
Cooling Degree Days 0 3  
Month to date cooling degree days 84 50  
Year to date cooling degree days 4673 4112  
Growing Degree Days 6 (Base 50)    
Moisture  
Dew Point 15 °F    
Average Humidity 24    
Maximum Humidity 36    
Minimum Humidity 11    
Precipitation  
Precipitation 0.00 in 0.01 in 0.41 in (1972)
Month to date precipitation T 0.14  
Year to date precipitation 1.82 4.47  
Since 1 July precipitation 1.03 1.53  
Snow  
Snow 0.00 in - - ()
Month to date snowfall 0.0  
Year to date snowfall 0.0  
Since 1 July snowfall 0.0  
Snow Depth 0.00 in    
Sea Level Pressure  
Sea Level Pressure 30.28 in    
Wind  
Wind Speed 4 mph (WNW)    
Max Wind Speed 13 mph    
Max Gust Speed 15 mph    
Visibility 10 miles    
Events      
T = Trace of Precipitation, MM = Missing Value Source: NWS Daily Summary

Daily Weather History Graph

Daily Weather History Graph

Search for Another Location

Airport:

Trip Planner

Search our weather history database for the weather conditions in past years. The results will help you decide how hot, cold, wet, or windy it might be!

Date:

Astronomy

Nov. 11, 2012 Rise Set
Actual Time 6:14 AM PST 4:44 PM PST
Civil Twilight 5:48 AM PST 5:11 PM PST
Nautical Twilight 5:18 AM PST 5:41 PM PST
Astronomical Twilight 4:49 AM PST 6:10 PM PST
Moon 3:39 AM PST (11/11) 3:07 PM PST (11/11)
Length of Visible Light 11h 22m
Length of Day
10h 29m
Waning Crescent, 6% of the Moon is Illuminated
Nov 11
Waning Crescent
Nov 13
New
Nov 20
First Quarter
Nov 28
Full
Dec 6
Last Quarter

Hourly Weather History & Observations

Time (PST) Temp. Windchill Dew Point Humidity Pressure Visibility Wind Dir Wind Speed Gust Speed Precip Events Conditions
12:53 AM 51.1 °F - 16.0 °F 25% 30.14 in 10.0 mi NNW 9.2 mph - N/A   Clear
1:53 AM 48.9 °F - 23.0 °F 36% 30.16 in 10.0 mi WNW 3.5 mph - N/A   Clear
2:53 AM 48.9 °F - 19.0 °F 31% 30.18 in 10.0 mi NNW 6.9 mph - N/A   Clear
3:53 AM 45.0 °F 41.2 °F 15.1 °F 30% 30.19 in 10.0 mi NW 6.9 mph - N/A   Clear
4:53 AM 48.0 °F - 17.1 °F 29% 30.22 in 10.0 mi West 4.6 mph - N/A   Clear
6:53 AM 45.0 °F 41.2 °F 18.0 °F 34% 30.27 in 10.0 mi North 6.9 mph - N/A   Clear
7:53 AM 52.0 °F - 24.1 °F 34% 30.30 in 10.0 mi Calm Calm - N/A   Clear
8:53 AM 60.1 °F - 15.1 °F 17% 30.32 in 10.0 mi NW 4.6 mph - N/A   Clear
10:53 AM 63.0 °F - 12.9 °F 14% 30.32 in 10.0 mi Calm Calm - N/A   Clear
11:53 AM 63.0 °F - 12.9 °F 14% 30.30 in 10.0 mi SSW 3.5 mph - N/A   Clear
12:53 PM 64.9 °F - 12.9 °F 13% 30.28 in 10.0 mi Variable 3.5 mph - N/A   Clear
1:53 PM 64.9 °F - 12.0 °F 13% 30.27 in 10.0 mi WSW 4.6 mph - N/A   Clear
2:53 PM 66.0 °F - 10.9 °F 12% 30.26 in 10.0 mi Calm Calm - N/A   Clear
3:53 PM 64.9 °F - 10.0 °F 12% 30.27 in 10.0 mi Calm Calm - N/A   Clear
5:53 PM 61.0 °F - 15.1 °F 17% 30.30 in 10.0 mi NNW 4.6 mph - N/A   Clear
6:53 PM 59.0 °F - 12.9 °F 16% 30.32 in 10.0 mi WNW 4.6 mph - N/A   Clear
7:53 PM 59.0 °F - 10.9 °F 15% 30.33 in 10.0 mi NW 4.6 mph - N/A   Clear
8:53 PM 55.9 °F - 16.0 °F 21% 30.36 in 10.0 mi West 3.5 mph - N/A   Clear
9:53 PM 55.0 °F - 14.0 °F 20% 30.36 in 10.0 mi West 4.6 mph - N/A   Clear
10:53 PM 55.0 °F - 12.0 °F 18% 30.35 in 10.0 mi West 3.5 mph - N/A   Clear
11:53 PM 52.0 °F - 15.1 °F 23% 30.34 in 10.0 mi WSW 5.8 mph - N/A   Clear